Location: Kott?ru
(16.6209°N, 80.6208°E)
Time: 16:17:49
(UTC+00:00)

Intercosmos 25 - Pass Details

Date: 18 September 2020
Orbit: 439 x 2876 km, 82.6° (Epoch: 20 October)

Event Time Altitude Azimuth Distance (km) Brightness Sun altitude
Rises 23:26:44 0° 185° (S) 4,662 7.9 -15.0°
Reaches altitude 10° 23:30:17 10° 185° (S) 3,294 7.1 -14.2°
Maximum altitude 23:37:32 83° 272° (W) 867 4.2 -12.5°
Drops below altitude 10° 23:41:58 10° 2° (N) 2,044 6.3 -11.4°
Sets 23:43:45 0° 3° (N) 2,790 7.0 -11.0°
